Location: SAPM � Hemmingford
(45.0500°N, 73.5833°W)
Time: 02:53:40
(UTC-05:00)

Daily predictions for brighter satellites

Satellite Brightness Start Highest point End
(mag) Time Altitude Azimuth Time Altitude Azimuth Time Altitude Azimuth
SL-16 R/B 4.1 03:40:52 26° ENE 03:40:52 26° ENE 03:44:23 10° ESE
Cosmos 2297 Rocket 3.8 03:51:30 31° E 03:51:30 31° E 03:55:23 10° NE
USA 234 4.3 03:50:06 10° ENE 03:55:38 36° NNE 03:55:38 36° NNE
Cosmos 2227 Rocket 3.5 04:05:01 34° NE 04:05:01 34° NE 04:08:16 10° NNE
Tsikada Rocket 4.3 04:19:32 42° NNE 04:21:42 66° E 04:27:59 10° SSE
Cosmos 2082 4.1 04:32:52 58° NNE 04:32:52 58° NNE 04:37:26 10° NNE
SeaSat 1 3.9 04:40:08 10° NNE 04:42:30 28° NNE 04:42:30 28° NNE
ADEOS II 4.4 04:40:05 10° N 04:40:34 13° N 04:40:34 13° N
Cosmos 1864 Rocket 4.3 04:42:37 10° S 04:48:45 84° W 04:54:58 10° N
Cosmos 1725 Rocket 3.8 04:42:30 10° S 04:48:46 83° W 04:55:07 10° N
SKYMED 2 4.0 04:46:45 10° SSE 04:50:55 59° E 04:50:55 59° E
USA 229 DEB 3.7 04:50:53 60° WNW 04:52:05 72° WSW 04:59:16 10° SSE
USA 229 3.7 04:50:58 60° WNW 04:52:11 72° WSW 04:59:22 10° SSE
NOAA 6 4.3 04:48:01 10° NNE 04:53:13 68° ESE 04:58:23 10° S
Cosmos 1328 4.1 05:04:54 64° ENE 05:05:00 65° E 05:08:57 10° SSE
Cosmos 304 Rocket 3.6 05:04:55 82° NW 05:05:08 87° WSW 05:09:55 10° SSE
NOSS 3-1 (A) 4.4 05:00:53 24° NNW 05:05:40 60° NE 05:13:49 10° SE
Cosmos 2221 4.3 05:09:14 10° SSE 05:13:05 32° E 05:16:55 10° NNE
ATLAS 2AS CENTAUR R/B 4.3 05:07:56 15° NNW 05:13:47 32° NNE 05:20:41 10° E
ISS -1.9 05:16:07 34° SSE 05:16:07 34° SSE 05:18:09 10° SE
Cosmos 2058 3.6 05:15:44 13° N 05:19:18 53° ENE 05:23:20 10° SSE
Cosmos 2237 Rocket 4.0 05:22:48 15° SW 05:22:48 15° SW 05:24:03 10° SSW
Genesis I 3.9 05:18:48 39° N 05:19:44 49° NE 05:23:33 10° SE
SL-16 R/B 2.3 05:22:48 45° WNW 05:23:56 52° WSW 05:29:23 10° S
SL-8 R/B 3.7 05:25:58 49° NW 05:27:10 73° NNE 05:31:58 10° ESE
Cosmos 2297 Rocket 2.6 05:33:23 37° WNW 05:34:16 39° NW 05:39:36 10° NNE
Cosmos 1703 4.4 05:30:36 10° N 05:34:23 44° ENE 05:38:09 10° SSE
IDEFIX/ARIANE 42P 4.3 05:30:12 10° NNE 05:35:01 35° E 05:39:47 10° SSE
Cosmos 1842 Rocket 3.6 05:33:50 10° SSW 05:38:03 52° WNW 05:42:20 10° N
Cosmos 2233 Rocket 4.0 05:32:01 10° SSW 05:38:08 57° WNW 05:44:22 10° N
USA 234 3.4 05:31:52 10° ESE 05:38:24 72° NNE 05:42:59 21° NW
COSMO-SKYMED 1 2.9 05:34:57 10° S 05:39:03 42° W 05:39:28 41° W
Cosmos 2151 2.9 05:39:27 22° NNW 05:42:05 63° W 05:46:16 10° S
Meteor 1-11 4.2 05:36:26 10° NNW 05:42:16 77° W 05:48:03 10° S
Helios 1B rocket 4.4 05:39:13 10° SE 05:42:44 28° ENE 05:46:17 10° N
Cosmos 1356 Rocket 4.2 05:39:46 10° N 05:43:46 52° ENE 05:47:50 10° SSE
Cosmos 1538 Rocket 4.1 05:41:35 21° NNW 05:45:07 59° WSW 05:50:22 10° S
ERBS 2.3 05:44:40 54° W 05:45:13 66° SW 05:48:37 10° SE
Cosmos 1805 Rocket 4.0 05:41:14 10° N 05:45:39 63° E 05:50:00 10° SSE
NOSS 3-1 (C) 4.0 05:41:10 19° NW 05:46:57 75° WSW 05:55:14 10° SSE
Cosmos 2227 Rocket 3.1 05:46:53 26° NW 05:47:09 26° NW 05:51:52 10° N
Cosmos 1340 Rocket 2.6 05:44:22 17° NNW 05:47:20 75° W 05:51:16 10° S
Meteor 1-4 Rocket 3.0 05:48:26 39° WNW 05:48:26 39° WNW 05:51:53 10° N
Meteor 1-16 Rocket 4.0 05:45:05 10° SSW 05:50:28 66° WNW 05:55:47 10° N
Cosmos 1271 Rocket 2.5 05:48:23 10° SSW 05:52:12 70° WNW 05:56:00 10° N
Cosmos 923 Rocket 4.1 05:47:24 10° NNW 05:52:39 78° ENE 05:57:54 10° SSE
Cosmos 1500 Rocket 4.3 05:52:33 30° WNW 05:53:14 32° W 05:57:10 10° SSW
Meteor 1-28 Rocket 3.6 05:51:01 10° S 05:54:34 40° W 05:55:51 29° NW
Ariane Rocket 2.9 05:50:57 10° N 05:56:02 69° WNW 06:01:06 10° SSW
Cosmos 2034 Rocket 4.3 05:51:27 10° S 05:57:35 73° E 06:03:50 10° NNE
SL-14 R/B 3.7 05:55:40 23° NW 05:57:40 39° W 06:01:28 10° SSW
YAOGAN 3 4.5 05:55:46 10° NNE 06:00:09 85° WNW 06:04:31 10° SSW
Cosmos 292 Rocket 3.8 05:56:00 10° NNW 06:00:49 80° ENE 06:05:36 10° SSE
Cosmos 1680 Rocket 3.8 05:56:15 10° NNW 06:01:34 72° ENE 06:06:52 10° SSE
SJ-12 4.4 05:59:09 10° NNE 06:03:13 64° E 06:07:15 10° S
Nadezhda 4 Rocket 4.5 05:57:15 10° N 06:03:35 66° E 06:09:49 10° SSE
Cosmos 1626 2.2 06:02:41 10° N 06:06:27 83° E 06:10:11 10° S
Cosmos 1943 3.6 06:01:16 10° NNW 06:06:58 66° ENE 06:12:37 10° SE
Sich 1 3.2 06:06:32 10° N 06:10:56 77° E 06:15:15 10° SSE
SMAP 3.6 06:06:37 10° NNE 06:11:15 62° E 06:15:51 10° S
Cosmos 1633 Rocket 3.3 06:08:45 10° N 06:13:08 71° E 06:17:27 10° SSE
Meteor 2-1 Rocket 4.2 06:08:56 10° SSW 06:14:30 66° WNW 06:20:14 10° N
CZ-2C R/B 2.4 06:09:53 10° NNE 06:14:30 76° ESE 06:19:04 10° S
Cosmos 1513 Rocket 4.5 06:08:44 10° SSW 06:15:00 77° W 06:21:25 10° N
ATLAS CENTAUR R/B 4.1 06:14:04 11° NNW 06:17:31 26° NNE 06:25:23 10° E
CZ-4 R/B 1.3 06:15:40 10° NNE 06:19:44 84° WNW 06:23:50 10° SSW
Cosmos 389 Rocket 3.3 06:16:52 10° S 06:20:27 57° E 06:24:06 10° NNE
SeaSat 1 4.2 06:19:31 10° NNW 06:21:39 13° NW 06:22:18 13° NW
PAYLOAD A 3.9 06:17:29 10° N 06:22:32 63° WNW 06:27:20 10° SSW
CSL-04 Debris 4.2 06:17:09 10° N 06:22:33 59° WNW 06:27:55 10° SSW
Tiangong 2 4.1 06:23:57 10° S 06:25:41 14° SSE 06:27:26 10° ESE
Cosmos 1603 4.1 06:22:33 10° NW 06:27:50 42° WSW 06:33:07 10° S
Cosmos 1464 Rocket 4.2 06:22:28 10° SSW 06:28:37 51° WNW 06:34:44 10° N
Cosmos 968 Rocket 4.4 06:25:34 10° WSW 06:30:04 28° WNW 06:34:36 10° N
YAOGAN 1 2.6 06:27:03 10° NNE 06:31:24 87° ESE 06:35:44 10° SSW
Cosmos 2263 Rocket 3.0 06:30:05 10° S 06:35:37 57° ESE 06:41:13 10° NNE
Cosmos 2112 Rocket 4.1 06:30:52 10° NNW 06:36:11 69° WSW 06:41:29 10° S
Cosmos 1908 3.1 06:35:04 10° SSW 06:38:53 78° W 06:42:44 10° N
Coronas F rocket 1.2 06:36:46 10° NNW 06:39:07 47° W 06:41:26 10° S
MSX 4.0 06:38:09 10° NNE 06:43:56 86° ESE 06:49:44 10° SSW
Cosmos 1666 Rocket 3.9 06:39:54 10° NNW 06:44:09 44° W 06:48:23 10° SSW
CZ-4 R/B 4.4 06:44:40 10° N 06:48:49 76° WNW 06:52:55 10° SSW
Cosmos 2221 3.6 06:47:10 10° SW 06:50:42 24° WNW 06:54:14 10° NNW
CSL-04 Rocket 4.4 06:46:59 10° N 06:51:33 30° WNW 06:56:03 10° WSW
Cosmos 1933 Rocket 3.6 06:51:21 10° N 06:55:51 88° W 07:00:16 10° S
